Showing default

COSMOS 1565, 15004

Orbit data source: Space-Track

COSMOS 1565, 15004 is a payload satellite owned by GUKOS (CIS) in LEO that was launched on Mon, 28 May 1984 UTC via a KOSMOS 11K65M launch vehicle from the Plesetsk Missile And Space Complex (PKMTR). Payload-class satellites include a variety of spacecraft equipped with specific instruments for various scientific and technological missions. These include communications satellites like Starlink; space stations such as the ISS; scientific satellites like the Hubble; Earth observation satellites from companies like Planet Labs, Umbra, and HawkEye 360; GPS; miniature CubeSats for education and research; and military/defense satellites.

Loading next visibility...
Identifier
15004, 1984-052G
Orbit
LEO
Country
Flag of CISCIS
Related business
Manufacturer
NPO PM
Mission
Spacecraft
Bus & Motor
STRELA-1 11F625, Unknown motor
Mass
60 kg wet, 60 kg dry
Launch date (UTC)
1984-05-28 (41 years ago)
Launch vehicle
KOSMOS 11K65M
Launch site
Plesetsk Missile And Space Complex (PKMTR)
Object type
Payload
Rocket body
Debris
Shape & HBR
Unknown
Radar Cross Section
Medium (>0.1 m² and <1 m²)

Expand to show TLE details & history
Last TLE update: 6 hours ago

TLE from 6 hours ago
0 COSMOS 1565
1 15004U 84052G   25293.62174052 -.00000018  00000-0 -69984-5 0  9999
2 15004  74.0122  67.5631 0043952 228.5868 143.0903 12.55458606897082
Epoch: 2025-10-20T14:55Z
TLE epoch observation values (Epoch: 2025-10-20T14:55:18.380Z)
Latitude
11.47174°
Longitude
177.73208°
Altitude
1,470.922 km
Speed
7.116 km/s
True Right ascension
04h 43m 31s
True Declination
11° 24' 40"
Sunlit
Object was in full shadow at epoch
Visualization orbit readout
Latitude
Unknown
Longitude
Unknown
Altitude
Unknown
Speed
Unknown
Apparent Right ascension
Unknown
Apparent Declination
Unknown
Sunlit
N/A
Visualization observer readout
Local Sidereal Time
16:07:25
Azimuth
Unknown
Elevation
Unknown
Doppler factor
Unknown
Orbital elements
Apogee altitude
1,473.936 km
Perigee altitude
1,405.215 km
Semi-major axis
7,817.713 km
Eccentricity
0.0044
Inclination
74.0122°
RAAN
67.5631°
Arg. of periapsis
228.5868°
True anomaly
143.39145°
Mean anomaly
143.0903°
Eccentric anomaly
143.24101°
Mean motion
3.13996 °/min
Orbital period
114.65 mins
BSTAR
-0.0000069984
Loading maneuver chart data...
Computing Atmospheric mass density...
Loading historical data...
Loading historical data...
Loading historical data...
Loading historical data...
Loading historical data...
Loading historical data...
Loading historical data...

Documentation

Showing up to 5 results
|